Weather History for KMSY - August, 2013

Change the Weather History Date:

Wednesday, August 7, 2013

  Actual Average Record
Temperature  
Mean Temperature 88 °F -  
Max Temperature 97 °F 90 °F 97 °F (2013)
Min Temperature 79 °F 74 °F 69 °F (1975)
Cooling Degree Days 23    
Growing Degree Days 38 (Base 50)    
Moisture  
Dew Point 75 °F    
Average Humidity 68    
Maximum Humidity 90    
Minimum Humidity 39    
Precipitation  
Precipitation 0.00 in - - ()
Sea Level Pressure  
Sea Level Pressure 29.95 in    
Wind  
Wind Speed 7 mph (WSW)    
Max Wind Speed 9 mph    
Max Gust Speed -    
Visibility 10 miles    
Events      
Averages and records for this station are not official NWS values.
T = Trace of Precipitation, MM = Missing Value Source: NWS Daily Summary

Daily Weather History Graph

Daily Weather History Graph

Search for Another Location

Airport or City:

Trip Planner

Search our weather history database for the weather conditions in past years. The results will help you decide how hot, cold, wet, or windy it might be!

Date:

Astronomy

Aug. 07, 2013 Rise Set
Actual Time 6:23 AM CDT 7:49 PM CDT
Civil Twilight 5:58 AM CDT 8:14 PM CDT
Nautical Twilight 5:27 AM CDT 8:45 PM CDT
Astronomical Twilight 4:55 AM CDT 9:16 PM CDT
Moon 7:04 AM CDT (8/7) 8:06 PM CDT (8/7)
Length of Visible Light 14h 16m
Length of Day
13h 25m
New Moon, 1% of the Moon is Illuminated
Aug 7
New Moon
Aug 14
First Quarter
Aug 20
Full
Aug 28
Last Quarter
Sep 5
New

Hourly Weather History & Observations

Time (CDT) Temp. Heat Index Dew Point Humidity Pressure Visibility Wind Dir Wind Speed Gust Speed Precip Events Conditions
12:53 AM 82.0 °F 90.2 °F 77.0 °F 85% 29.96 in 10.0 mi SW 9.2 mph - N/A   Scattered Clouds
1:53 AM 82.0 °F 90.2 °F 77.0 °F 85% 29.94 in 10.0 mi SW 8.1 mph - N/A   Partly Cloudy
2:53 AM 80.1 °F 85.8 °F 77.0 °F 90% 29.94 in 10.0 mi WSW 8.1 mph - N/A   Clear
3:53 AM 80.1 °F 85.4 °F 75.9 °F 87% 29.95 in 10.0 mi WNW 8.1 mph - N/A   Partly Cloudy
4:53 AM 80.1 °F 85.4 °F 75.9 °F 87% 29.94 in 10.0 mi WNW 4.6 mph - N/A   Partly Cloudy
5:53 AM 80.1 °F 85.4 °F 75.9 °F 87% 29.94 in 10.0 mi Calm Calm - N/A   Scattered Clouds
6:53 AM 80.1 °F 85.8 °F 77.0 °F 90% 29.96 in 10.0 mi WNW 4.6 mph - N/A   Scattered Clouds
7:53 AM 82.9 °F 92.8 °F 78.1 °F 85% 29.98 in 10.0 mi NW 6.9 mph - N/A   Scattered Clouds
8:53 AM 84.9 °F 95.3 °F 77.0 °F 77% 30.00 in 10.0 mi NW 6.9 mph - N/A   Scattered Clouds
9:53 AM 88.0 °F 98.5 °F 75.9 °F 67% 29.99 in 10.0 mi North 8.1 mph - N/A   Scattered Clouds
10:53 AM 90.0 °F 99.0 °F 73.9 °F 59% 30.01 in 10.0 mi NNW 5.8 mph - N/A   Scattered Clouds
11:53 AM 91.9 °F 100.7 °F 73.0 °F 54% 30.00 in 10.0 mi Calm Calm - N/A   Scattered Clouds
12:53 PM 93.9 °F 102.1 °F 72.0 °F 49% 29.99 in 10.0 mi West 4.6 mph - N/A   Scattered Clouds
1:53 PM 95.0 °F 101.3 °F 70.0 °F 44% 29.97 in 10.0 mi Calm Calm - N/A   Scattered Clouds
2:53 PM 96.1 °F 103.5 °F 71.1 °F 44% 29.96 in 10.0 mi WSW 8.1 mph - N/A   Scattered Clouds
3:53 PM 96.1 °F 104.9 °F 72.0 °F 46% 29.94 in 10.0 mi SW 8.1 mph - N/A   Scattered Clouds
4:53 PM 95.0 °F 101.3 °F 70.0 °F 44% 29.91 in 10.0 mi WSW 6.9 mph - N/A   Scattered Clouds
5:53 PM 93.9 °F 100.3 °F 70.0 °F 46% 29.90 in 10.0 mi Calm Calm - N/A   Scattered Clouds
6:53 PM 93.0 °F 100.7 °F 72.0 °F 50% 29.91 in 10.0 mi South 6.9 mph - N/A   Scattered Clouds
7:53 PM 89.1 °F 100.2 °F 75.9 °F 65% 29.90 in 10.0 mi South 8.1 mph - N/A   Scattered Clouds
8:53 PM 87.1 °F 99.8 °F 78.1 °F 74% 29.93 in 10.0 mi South 6.9 mph - N/A   Scattered Clouds
9:53 PM 86.0 °F 98.3 °F 78.1 °F 77% 29.94 in 10.0 mi South 5.8 mph - N/A   Partly Cloudy
10:53 PM 84.9 °F 96.6 °F 78.1 °F 80% 29.94 in 10.0 mi South 6.9 mph - N/A   Partly Cloudy
11:53 PM 82.9 °F 92.8 °F 78.1 °F 85% 29.94 in 10.0 mi SSW 5.8 mph - N/A   Partly Cloudy